RH
3 2 2 4 6 6 13 15 20 22 46 99 98 72 86 98 82 75 77 92 82 61 58 49 42 38 36 35 38 42 47 40 32 31 37 33 24 32 28 23 16 15 29 53
12 19 2 2 5 5 10 7 17 45 65 100 93 91 79 90 57 68 85 81 82 67 55 52 50 44 41 39 39 45 46 42 37 36 38 32 27 32 30 25 18 21 27 33
18 35 16 3 4 6 6 10 12 20 95 93 89 92 84 76 66 72 79 79 84 85 73 64 60 47 39 39 43 43 36 29 34 31 24 22 21 27 24 28 21 18 25 15
86 97 56 33 6 40 7 7 18 87 100 91 93 87 86 72 76 77 76 73 74 67 71 97 72 49 38 37 43 36 29 22 23 22 21 17 20 18 21 20 16 9 17 13
100 100 100 100 16 28 37 84 95 100 100 72 94 81 57 88 94 86 90 98 98 82 83 91 87 54 44 44 43 36 27 24 29 32 27 21 16 13 12 13 11 8 13 14
96 67 96 97 95 68 93 100 100 96 74 94 64 99 55 77 86 97 98 92 99 95 90 91 94 77 55 51 42 36 26 29 35 34 32 28 16 10 8 8 10 10 11 11
100 88 84 81 100 97 100 100 100 90 66 22 68 97 63 95 96 96 98 98 93 84 89 98 96 92 71 59 46 38 28 31 35 32 30 23 16 10 8 7 8 8 10 12
96 100 72 82 91 98 87 67 36 49 42 42 95 76 58 99 95 100 100 96 89 69 82 100 91 74 63 66 55 38 30 33 34 29 24 16 12 10 9 6 5 6 9 12
100 100 98 99 100 100 98 79 99 100 93 89 85 87 96 98 99 100 99 93 99 100 98 90 72 64 72 56 44 34 34 34 32 29 22 15 12 12 19 18 5 5 7 12
89 90 73 100 98 99 99 98 98 100 100 100 98 100 100 98 97 99 100 100 100 96 85 81 80 71 58 55 41 34 33 32 30 29 27 23 15 18 22 20 8 4 7 5
76 100 59 53 94 99 100 100 100 100 100 100 100 100 95 100 98 98 100 100 94 76 65 63 53 42 48 51 35 32 30 27 24 20 17 15 18 16 14 12 9 7 6 6
60 78 100 92 99 97 100 100 100 100 100 100 99 97 88 96 100 100 87 80 77 95 91 72 72 66 61 53 23 21 21 17 16 15 13 13 13 14 14 14 14 12 8 7
83 98 94 95 81 84 90 88 100 100 100 91 94 88 80 100 100 99 68 78 95 94 49 19 16 16 23 27 18 18 18 17 17 16 16 16 16 15 14 13 13 10 8 8
94 100 100 100 100 95 100 95 99 100 96 100 99 95 98 99 87 72 91 74 45 55 57 64 38 16 14 19 21 21 20 18 16 14 12 11 10 7 7 8 6 5 5 10
87 100 100 99 100 100 99 87 84 93 95 99 99 100 87 90 89 100 100 93 46 45 20 5 5 6 11 17 18 18 16 11 9 6 6 4 3 5 2 3 3 3 5 12
20 77 96 99 100 100 100 100 100 72 89 91 100 94 78 100 100 100 98 17 18 7 6 8 7 5 5 6 8 8 8 7 7 7 6 6 5 5 4 2 4 6 25 26
17 22 44 81 96 100 98 100 100 100 100 100 97 86 100 99 92 72 32 27 13 9 10 11 11 10 4 3 3 3 3 3 3 2 2 2 15 27 22 8 17 42 56 60
20 27 26 42 84 88 84 60 59 51 50 51 64 90 84 79 96 65 21 14 12 9 8 9 11 10 8 4 3 3 2 2 3 21 29 61 71 50 25 23 37 74 75 80
28 26 41 36 46 74 73 61 56 42 54 86 78 37 42 34 22 21 36 38 28 26 22 22 24 25 17 16 10 10 8 8 25 88 89 86 97 74 56 72 78 97 86 82
71 46 61 67 68 67 60 81 48 37 70 85 83 49 18 18 21 44 53 46 38 38 38 30 25 20 25 30 34 32 39 53 53 51 81 79 85 99 80 87 99 94 71 89
75 71 52 61 85 96 93 90 99 61 80 100 94 86 60 39 52 68 64 56 60 50 41 46 50 44 34 37 62 80 83 77 83 99 98 86 88 93 98 97 99 85 90 99
100 90 90 74 94 100 90 83 100 99 91 75 100 100 94 78 75 77 72 68 73 80 70 61 60 52 50 60 83 98 97 93 98 99 98 96 81 87 89 89 91 99 97 97
98 98 100 100 100 100 100 93 91 99 100 99 100 100 100 96 90 72 66 66 67 65 55 56 42 80 83 89 96 98 100 99 97 99 98 96 98 97 98 97 98 97 97 90
99 96 84 86 100 100 98 82 65 82 100 100 100 100 100 100 76 60 60 65 67 74 78 65 83 100 100 99 99 100 98 100 100 99 99 98 99 96 99 98 98 98 92 98
86 82 83 79 67 65 96 92 97 97 100 98 99 100 99 91 67 66 69 66 65 99 100 100 100 100 100 99 100 100 100 100 100 100 99 98 98 98 98 98 98 99 98 99
58 55 57 57 56 55 85 86 100 100 100 100 81 83 88 89 89 81 75 67 70 98 100 100 99 100 100 100 100 100 100 100 100 98 98 99 100 99 98 99 98 98 99 99
Wind_Speed
81 83 91 86 76 69 60 61 61 60 63 60 49 64 61 58 63 60 58 54 50 51 52 49 49 45 46 48 42 39 39 35 32 29 32 34 35 30 36 35 33 33 32 33
66 70 78 78 73 69 62 60 59 52 55 41 52 53 61 50 67 63 58 60 54 49 50 50 48 50 50 52 45 42 43 39 36 32 32 36 36 33 36 37 34 32 31 34
44 47 53 69 70 65 61 61 57 51 48 51 43 53 58 62 61 63 62 60 57 54 51 49 50 53 53 49 45 46 44 42 39 36 33 36 33 35 36 35 36 34 34 32
21 15 37 56 67 48 56 52 51 45 50 52 47 53 60 60 59 59 59 64 62 61 53 51 50 56 53 44 46 47 44 40 40 37 37 35 34 36 37 37 36 36 36 31
18 23 27 28 52 45 43 36 36 44 51 55 55 56 48 54 55 57 59 55 53 61 53 53 56 56 52 49 48 48 43 41 42 42 40 37 36 37 37 38 36 35 38 33
11 13 16 16 20 32 29 36 38 45 50 53 44 47 49 52 54 52 49 49 48 60 61 60 59 57 53 51 52 48 45 43 42 42 42 39 37 35 36 39 37 35 37 35
9 17 18 32 24 36 39 42 43 44 46 39 40 39 37 36 30 34 33 24 36 54 61 60 62 51 54 55 53 50 47 43 44 43 41 39 37 36 37 39 39 34 36 35
12 8 24 21 33 36 42 39 40 42 41 36 30 32 30 27 22 21 30 45 47 48 48 39 51 58 59 54 52 52 48 45 44 42 39 38 37 36 36 37 35 32 34 35
7 6 14 22 25 26 32 31 23 24 24 20 23 22 22 21 26 35 38 40 31 36 37 44 53 55 48 47 51 51 47 44 43 40 38 37 39 35 36 38 35 32 34 36
6 1 9 25 19 20 18 18 28 24 16 15 13 15 18 23 32 32 29 32 38 37 38 40 45 48 41 42 45 47 45 42 42 39 38 37 41 39 39 37 37 33 35 39
22 3 18 11 21 21 20 22 25 22 22 12 12 13 18 16 31 29 33 39 33 35 35 31 30 30 38 42 42 41 42 41 42 41 41 36 40 39 38 38 38 35 36 39
18 18 10 13 9 16 20 21 25 25 26 21 14 15 17 16 22 30 40 30 32 25 23 30 34 35 39 40 39 39 41 39 41 39 40 40 39 41 39 40 40 39 37 39
14 15 20 10 14 19 22 22 20 23 19 21 24 20 23 21 30 26 18 20 20 27 27 29 31 31 34 37 38 38 39 41 40 42 42 43 42 43 41 41 39 41 40 40
14 14 15 9 13 20 21 19 21 24 27 17 13 26 22 21 26 23 20 21 22 22 25 25 26 27 29 33 35 37 40 39 39 40 40 42 43 41 42 42 40 43 41 40
12 20 10 12 10 13 15 24 25 24 20 26 17 14 18 25 29 28 12 15 20 22 23 22 23 25 29 31 34 36 37 37 39 39 40 40 39 41 36 37 41 44 43 41
22 10 11 5 11 3 11 18 19 14 17 21 24 24 21 17 30 27 18 20 20 22 22 21 23 24 26 29 33 35 38 39 42 43 45 43 43 42 43 42 46 47 43 41
16 13 12 10 12 6 12 7 7 9 9 10 26 20 24 35 16 19 23 20 21 21 21 22 25 27 29 32 36 38 42 44 45 45 46 45 44 44 46 49 49 46 43 42
16 12 13 11 8 8 14 12 13 15 23 25 28 28 28 26 20 19 21 22 21 21 22 25 27 29 31 36 41 43 44 47 47 42 36 33 36 39 39 41 43 42 42 42
14 16 14 11 11 11 12 13 14 16 19 18 17 20 24 23 22 22 21 21 22 23 25 25 27 29 33 37 39 38 37 39 38 43 36 30 33 37 36 39 41 44 44 45
10 10 14 15 14 15 19 14 16 19 20 22 27 22 24 24 24 25 25 24 23 24 24 27 30 32 30 34 37 39 37 31 33 37 29 25 26 33 35 40 44 44 45 44
9 15 16 14 16 19 18 18 18 21 25 28 22 27 28 26 26 25 25 25 24 25 26 26 25 28 30 33 30 35 31 27 31 29 29 23 26 31 41 41 40 42 48 59
7 10 11 13 17 19 23 25 22 20 29 26 16 26 26 27 25 25 26 25 25 26 25 26 26 28 27 25 25 16 12 17 35 43 37 30 34 32 32 35 34 48 46 38
13 12 10 8 10 9 20 19 23 27 19 33 25 22 22 24 23 21 20 21 22 24 25 23 20 22 21 22 18 14 9 10 27 41 42 42 37 44 39 43 47 44 39 36
11 15 18 17 15 13 11 16 23 20 14 23 24 25 26 24 21 21 21 23 23 22 21 17 16 10 6 5 8 9 8 5 6 23 33 45 54 57 46 51 54 46 42 41
13 15 18 20 22 21 17 13 16 19 12 16 16 17 18 18 20 21 22 23 23 20 18 17 18 16 10 10 9 10 6 7 7 4 24 29 32 40 41 38 44 42 48 47
17 16 16 19 20 21 18 20 18 16 19 17 14 15 18 18 18 19 22 22 20 19 19 19 22 18 16 15 13 12 8 5 8 12 12 14 23 30 32 34 36 36 35 34
Wind_Direction
259 247 241 243 246 253 243 246 248 246 247 250 249 246 248 252 245 248 253 248 247 248 253 256 260 261 258 257 261 267 266 264 259 255 259 264 266 264 270 274 275 278 282 285
263 250 243 239 235 236 235 237 239 243 241 235 232 235 238 230 247 244 250 255 251 248 245 252 254 256 257 260 266 266 268 266 263 256 259 262 262 267 267 271 273 277 277 279
261 258 244 228 221 225 228 232 234 236 237 230 234 235 241 241 242 242 240 246 250 248 247 250 252 252 256 260 265 264 264 265 262 262 258 257 265 265 268 269 268 269 270 277
283 268 224 222 215 210 223 227 231 233 232 235 234 234 236 245 247 245 244 239 243 252 249 247 247 250 252 254 258 262 262 266 266 264 263 260 264 265 267 267 268 271 273 277
244 220 217 217 216 202 216 218 231 223 226 237 237 245 246 245 246 250 251 234 239 247 244 243 244 249 251 253 255 257 258 259 263 266 264 261 263 264 266 266 268 273 275 277
257 149 176 168 222 197 206 211 217 227 236 240 241 252 243 248 249 253 254 248 242 242 245 243 244 244 248 252 252 252 252 256 263 268 268 263 261 263 264 266 266 270 273 275
125 181 188 183 200 194 214 211 210 226 238 241 248 252 254 244 243 242 226 240 234 243 246 249 246 241 242 245 252 251 251 255 261 264 263 264 260 260 263 266 265 267 270 272
209 296 199 190 202 197 210 217 223 232 242 248 253 257 258 241 233 227 210 216 234 255 251 242 241 241 243 245 249 251 250 255 258 260 258 260 259 259 263 266 270 267 269 271
309 342 149 164 185 202 210 218 219 230 242 240 251 240 240 197 185 196 207 223 227 226 221 225 241 243 245 244 247 250 252 253 256 254 256 257 258 258 264 267 268 265 266 270
232 192 311 151 194 209 213 203 187 185 175 192 214 206 212 194 209 197 188 202 215 228 237 239 242 238 236 244 248 251 252 254 256 256 255 255 257 260 263 262 263 263 266 269
204 324 208 245 205 177 181 182 193 192 174 176 165 194 201 212 213 220 216 231 230 236 244 241 244 243 242 245 251 254 254 254 255 256 257 254 256 257 257 258 259 260 261 266
233 212 183 186 234 217 200 190 200 196 197 180 188 192 212 198 236 227 241 248 242 239 250 244 246 241 240 242 250 253 255 255 257 257 257 256 254 255 255 256 259 260 258 262
233 193 215 222 208 206 225 214 192 212 193 212 203 199 206 223 210 199 255 242 244 238 249 250 249 249 248 249 254 256 259 258 259 260 260 258 255 252 251 251 253 255 254 257
247 231 243 296 198 195 194 212 209 193 198 190 198 211 209 178 238 259 262 240 240 245 245 246 251 258 260 257 255 256 258 259 259 256 255 253 252 252 249 247 246 250 251 252
317 248 250 271 177 209 204 196 201 216 213 201 223 221 205 233 228 216 215 247 256 253 260 265 267 265 263 261 260 259 257 260 259 259 256 257 259 255 253 248 240 244 247 249
296 283 285 265 176 95 163 187 187 192 203 192 218 226 223 235 226 227 270 268 263 265 268 276 284 282 277 271 268 267 267 266 264 265 265 265 261 258 250 237 234 237 238 244
256 273 283 286 227 194 207 186 202 187 205 213 216 225 224 248 261 258 268 270 272 274 281 285 290 295 292 284 278 277 278 276 273 273 269 263 255 244 233 231 228 231 231 237
239 223 249 263 265 251 228 222 229 224 218 223 226 231 243 258 262 258 265 273 275 282 283 286 286 289 292 291 288 287 284 279 275 268 257 250 237 229 230 230 229 226 229 233
207 214 211 223 241 228 244 230 224 227 244 243 233 234 240 249 257 259 263 273 277 279 283 284 284 289 293 295 291 286 277 264 246 241 253 244 235 226 224 226 222 224 230 233
207 211 215 211 223 231 243 240 226 231 243 260 244 241 243 251 258 260 266 272 276 274 277 285 283 289 287 292 292 295 288 264 245 251 240 238 233 222 224 226 225 226 233 236
202 218 211 221 223 237 232 238 236 235 231 247 257 255 248 247 252 259 266 274 280 277 279 282 287 292 283 290 285 292 278 278 227 206 237 236 227 223 225 225 226 233 238 236
295 191 221 221 231 244 244 242 243 237 233 227 231 228 246 249 255 263 269 274 278 279 281 283 288 287 284 278 288 276 296 269 213 193 194 229 239 223 228 223 228 229 237 214
281 275 257 274 206 230 233 242 241 243 241 221 227 235 248 250 258 261 263 267 271 274 276 273 276 282 284 285 284 278 319 318 228 203 201 229 223 201 223 252 237 244 230 224
264 259 270 273 259 272 264 260 254 264 266 225 231 239 247 245 252 257 259 262 266 271 273 267 259 283 293 339 346 320 270 277 226 221 209 206 209 226 229 216 224 225 236 237
271 275 266 268 262 262 267 269 263 255 259 251 227 232 242 247 253 256 261 266 267 272 273 260 259 273 285 309 331 339 339 268 271 210 210 200 196 201 195 195 193 195 202 224
271 277 271 269 270 263 270 263 266 241 238 246 245 237 241 246 253 258 262 264 274 272 277 275 259 258 264 272 309 312 305 254 241 223 214 205 195 193 194 196 198 199 202 206